DW8320 Weather Reports


Display with metric or nautical units.
time (UTC)temp
F
wind
direction
speed
MPH
gust
MPH
rain 1hr
in
rain 24hr
in
rain mn
in
humidity
%
barometer
mb
20260505054502 66 141 0.0 6.0 0.00 0.00 0.00 52 1005.3
20260505054053 66 82 0.0 6.0 0.00 0.00 0.00 52 1005.2
20260505053543 66 215 0.0 8.0 0.00 0.00 0.00 52 1005.3
20260505053033 66 129 1.0 8.0 0.00 0.00 0.00 52 1005.2
20260505052524 66 91 0.0 3.0 0.00 0.00 0.00 52 1005.2
20260505052017 66 166 0.0 7.0 0.00 0.00 0.00 52 1005.2
20260505051607 67 183 1.0 7.0 0.00 0.00 0.00 51 1005.2
20260505051045 67 138 0.0 5.0 0.00 0.00 0.00 53 1005.1
20260505050530 66 158 0.0 4.0 0.00 0.00 0.00 52 1005.1
20260505050111 66 163 0.0 3.0 0.00 0.00 0.00 52 1005.4
20260505041604 66 205 0.0 3.0 0.00 0.00 0.00 53 1005.8
20260505041043 66 101 0.0 3.0 0.00 0.00 0.00 53 1005.8
20260505040529 66 195 0.0 3.0 0.00 0.00 0.00 53 1005.9
20260505040111 66 148 0.0 3.0 0.00 0.00 0.00 54 1005.9
20260505035538 66 165 0.0 3.0 0.00 0.00 0.00 55 1006.0
20260505035030 66 242 0.0 2.0 0.00 0.00 0.00 55 1006.0
20260505034516 66 193 0.0 2.0 0.00 0.00 0.00 55 1006.0
20260505034057 66 113 0.0 1.0 0.00 0.00 0.00 54 1006.1
20260505033543 66 215 0.0 4.0 0.00 0.00 0.00 55 1006.0
20260505033036 66 146 0.0 4.0 0.00 0.00 0.00 54 1006.1
20260505032522 66 61 0.0 3.0 0.00 0.00 0.00 55 1006.0
20260505032015 67 155 0.0 4.0 0.00 0.00 0.00 55 1005.9
20260505031554 67 169 0.0 4.0 0.00 0.00 0.00 54 1006.0
20260505031043 67 119 0.0 7.0 0.00 0.00 0.00 54 1005.9
20260505030525 67 128 1.0 7.0 0.00 0.00 0.00 54 1005.9
20260505030136 66 104 0.0 4.0 0.00 0.00 0.00 55 1005.8
20260505025541 67 84 0.0 1.0 0.00 0.00 0.00 54 1005.8
20260505025033 67 105 0.0 7.0 0.00 0.00 0.00 54 1005.7
20260505024519 67 174 1.0 7.0 0.00 0.00 0.00 54 1005.7
20260505024004 67 129 0.0 3.0 0.00 0.00 0.00 54 1005.6
20260505023551 66 197 1.0 3.0 0.00 0.00 0.00 55 1005.5
20260505023039 66 172 0.0 2.0 0.00 0.00 0.00 56 1005.5
20260505022527 66 203 0.0 2.0 0.00 0.00 0.00 56 1005.5
20260505022013 65 186 0.0 2.0 0.00 0.00 0.00 57 1005.4
20260505021602 65 228 0.0 1.0 0.00 0.00 0.00 57 1005.4
20260505021050 66 129 0.0 3.0 0.00 0.00 0.00 56 1005.3
20260505020539 66 156 0.0 3.0 0.00 0.00 0.00 57 1005.1
20260505020009 66 187 0.0 3.0 0.00 0.00 0.00 56 1005.0
20260505015557 66 187 0.0 3.0 0.00 0.00 0.00 56 1004.9
20260505015048 66 181 0.0 2.0 0.00 0.00 0.00 57 1004.9
20260505014540 66 183 0.0 2.0 0.00 0.00 0.00 56 1004.8
20260505014029 66 84 0.0 1.0 0.00 0.00 0.00 56 1004.8
20260505013513 66 119 0.0 1.0 0.00 0.00 0.00 56 1004.7
20260505013127 66 210 0.0 2.0 0.00 0.00 0.00 56 1004.7
20260505012551 66 198 0.0 2.0 0.00 0.00 0.00 56 1004.8
20260505012041 66 122 0.0 1.0 0.00 0.00 0.00 55 1004.7
20260505011526 67 122 0.0 1.0 0.00 0.00 0.00 54 1004.6
20260505011001 67 120 0.0 3.0 0.00 0.00 0.00 54 1004.7
20260505010554 67 167 0.0 1.0 0.00 0.00 0.00 53 1004.7
20260505010048 68 149 0.0 1.0 0.00 0.00 0.00 53 1004.6
20260505005516 68 139 0.0 2.0 0.00 0.00 0.00 52 1004.7
20260505005051 68 139 0.0 2.0 0.00 0.00 0.00 51 1004.7
20260505004541 69 158 0.0 2.0 0.00 0.00 0.00 50 1004.7
20260505004024 69 134 0.0 3.0 0.00 0.00 0.00 49 1004.7
20260505003508 70 284 1.0 3.0 0.00 0.00 0.00 49 1004.6
20260505003102 70 173 0.0 3.0 0.00 0.00 0.00 49 1004.6
20260505002541 70 200 0.0 2.0 0.00 0.00 0.00 48 1004.6
20260505002031 70 94 0.0 2.0 0.00 0.00 0.00 48 1004.6
20260505001517 70 160 0.0 2.0 0.00 0.00 0.00 47 1004.7
20260505001100 70 177 0.0 1.0 0.00 0.00 0.00 48 1004.7
20260505000546 71 116 0.0 3.0 0.00 0.00 0.00 47 1004.7
20260505000022 71 156 0.0 3.0 0.00 0.00 0.00 45 1004.8
20260504235513 71 94 0.0 5.0 0.00 0.00 0.00 47 1004.9
20260504235058 71 162 0.0 8.0 0.00 0.00 0.00 45 1005.0
20260504234541 71 127 1.0 8.0 0.00 0.00 0.00 46 1005.0
20260504234031 71 126 0.0 3.0 0.00 0.00 0.00 46 1005.2
20260504233518 71 195 0.0 2.0 0.00 0.00 0.00 47 1005.3
20260504233107 71 172 0.0 1.0 0.00 0.00 0.00 45 1005.3
20260504232549 71 132 0.0 2.0 0.00 0.00 0.00 44 1005.4
20260504232035 72 170 0.0 3.0 0.00 0.00 0.00 44 1005.4
20260504231523 72 70 0.0 3.0 0.00 0.00 0.00 43 1005.4
20260504231010 72 153 0.0 3.0 0.00 0.00 0.00 43 1005.4
20260504230604 73 86 0.0 5.0 0.00 0.00 0.00 43 1005.4
20260504230059 73 319 1.0 5.0 0.00 0.00 0.00 42 1005.3
20260504225529 72 139 0.0 3.0 0.00 0.00 0.00 44 1005.5
20260504225021 73 23 0.0 2.0 0.00 0.00 0.00 44 1005.5
20260504224503 73 91 0.0 4.0 0.00 0.00 0.00 45 1005.6
20260504224055 73 132 0.0 4.0 0.00 0.00 0.00 44 1005.4
20260504223545 74 148 0.0 6.0 0.00 0.00 0.00 45 1005.5
20260504223038 74 320 0.0 7.0 0.00 0.00 0.00 47 1005.6
20260504222514 74 205 0.0 4.0 0.00 0.00 0.00 45 1005.7
20260504222002 74 163 0.0 4.0 0.00 0.00 0.00 46 1005.6
20260504221602 74 153 0.0 4.0 0.00 0.00 0.00 45 1005.7
20260504221045 74 162 0.0 3.0 0.00 0.00 0.00 45 1005.7
20260504220535 74 155 0.0 4.0 0.00 0.00 0.00 46 1005.6
20260504220001 74 208 0.0 5.0 0.00 0.00 0.00 44 1005.5
20260504215553 74 199 1.0 5.0 0.00 0.00 0.00 45 1005.7
20260504215040 74 145 0.0 4.0 0.00 0.00 0.00 45 1005.9
20260504214533 75 150 0.0 4.0 0.00 0.00 0.00 47 1005.9
20260504214018 75 101 0.0 4.0 0.00 0.00 0.00 47 1006.1
20260504213602 75 91 0.0 5.0 0.00 0.00 0.00 47 1006.1
20260504213055 76 167 0.0 5.0 0.00 0.00 0.00 42 1006.1
20260504212534 76 200 0.0 2.0 0.00 0.00 0.00 44 1006.2
20260504212029 76 146 0.0 1.0 0.00 0.00 0.00 43 1006.3
20260504211503 75 146 0.0 1.0 0.00 0.00 0.00 47 1006.4
20260504211053 75 146 0.0 3.0 0.00 0.00 0.00 43 1006.5
20260504210541 76 319 0.0 3.0 0.00 0.00 0.00 43 1006.5
20260504210005 76 5 0.0 1.0 0.00 0.00 0.00 43 1006.7
20260504205553 76 54 0.0 3.0 0.00 0.00 0.00 43 1006.7
20260504205042 75 323 0.0 3.0 0.00 0.00 0.00 44 1006.7
20260504204528 75 160 0.0 2.0 0.00 0.00 0.00 45 1006.7
20260504204011 75 214 0.0 4.0 0.00 0.00 0.00 46 1006.8
20260504203558 76 201 0.0 4.0 0.00 0.00 0.00 47 1006.8
20260504203046 76 243 0.0 4.0 0.00 0.00 0.00 45 1006.9
20260504202531 75 330 0.0 1.0 0.00 0.00 0.00 48 1007.1
20260504202012 75 79 0.0 4.0 0.00 0.00 0.00 49 1007.1
20260504201636 75 43 0.0 4.0 0.00 0.00 0.00 49 1007.2
20260504201053 75 153 0.0 3.0 0.00 0.00 0.00 49 1007.2
20260504200533 76 152 0.0 3.0 0.00 0.00 0.00 44 1007.3
20260504200002 77 96 0.0 5.0 0.00 0.00 0.00 43 1007.3
20260504195551 76 113 0.0 7.0 0.00 0.00 0.00 43 1007.3
20260504195041 76 200 1.0 7.0 0.00 0.00 0.00 47 1007.5
20260504194533 76 312 0.0 2.0 0.00 0.00 0.00 48 1007.6
20260504194027 75 290 0.0 5.0 0.00 0.00 0.00 43 1007.6
20260504193514 74 104 0.0 5.0 0.00 0.00 0.00 46 1007.7
20260504193109 74 134 0.0 2.0 0.00 0.00 0.00 53 1007.9
20260504192544 74 134 0.0 4.0 0.00 0.00 0.00 52 1007.9
20260504192037 72 134 0.0 4.0 0.00 0.00 0.00 55 1008.1
20260504191529 71 290 0.0 3.0 0.00 0.00 0.00 57 1008.1
20260504191015 71 129 0.0 3.0 0.00 0.00 0.00 54 1008.0
20260504190559 71 153 1.0 2.0 0.00 0.00 0.00 56 1008.2
20260504190114 70 345 0.0 1.0 0.00 0.00 0.00 60 1008.4
20260504185529 70 51 0.0 3.0 0.00 0.00 0.00 58 1008.4
20260504185010 69 190 0.0 2.0 0.00 0.00 0.00 57 1008.4
20260504184620 69 160 0.0 2.0 0.00 0.00 0.00 60 1008.5
20260504184041 69 174 0.0 2.0 0.00 0.00 0.00 56 1008.6
20260504183532 70 198 0.0 3.0 0.00 0.00 0.00 57 1008.7
20260504183009 70 299 0.0 4.0 0.00 0.00 0.00 56 1008.5
20260504182557 70 159 0.0 4.0 0.00 0.00 0.00 52 1008.5
20260504182045 71 226 0.0 3.0 0.00 0.00 0.00 53 1008.4
20260504181536 71 176 0.0 6.0 0.00 0.00 0.00 51 1008.4
20260504181018 71 146 2.0 8.0 0.00 0.00 0.00 50 1008.3
20260504180506 72 233 1.0 8.0 0.00 0.00 0.00 49 1008.2
20260504180100 72 169 1.0 8.0 0.00 0.00 0.00 50 1008.2
20260504175533 72 174 0.0 10.0 0.00 0.00 0.00 51 1008.0
20260504175019 72 158 1.0 10.0 0.00 0.00 0.00 49 1007.9
20260504174502 73 131 3.0 9.0 0.00 0.00 0.00 48 1007.9
20260504174045 73 172 2.0 14.0 0.00 0.00 0.00 50 1007.8
20260504173538 74 200 3.0 13.0 0.00 0.00 0.00 46 1007.7
20260504173031 74 77 2.0 6.0 0.00 0.00 0.00 49 1007.8
20260504172503 73 98 0.0 2.0 0.00 0.00 0.00 52 1007.8
20260504172055 71 174 0.0 2.0 0.00 0.00 0.00 54 1007.9
20260504171546 70 332 0.0 2.0 0.00 0.00 0.00 53 1008.0
20260504171037 70 150 0.0 5.0 0.00 0.00 0.00 56 1008.1
20260504170528 69 298 0.0 8.0 0.00 0.00 0.00 54 1008.1
20260504170109 69 1 1.0 8.0 0.00 0.00 0.00 52 1007.5
20260504160113 69 358 0.0 3.0 0.00 0.00 0.00 55 1008.7
20260504151047 67 156 0.0 1.0 0.00 0.00 0.00 56 1008.9
20260504150538 66 156 0.0 2.0 0.00 0.00 0.00 57 1008.7
20260504141007 64 113 0.0 5.0 0.00 0.00 0.00 59 1009.0
20260504140601 63 146 0.0 5.0 0.00 0.00 0.00 57 1009.2
20260504130602 57 132 1.0 4.0 0.00 0.00 0.00 63 1009.4
20260504120121 54 118 0.0 3.0 0.00 0.00 0.00 67 1009.7
20260504110523 53 163 0.0 4.0 0.00 0.00 0.00 64 1009.4
20260504110115 52 153 0.0 4.0 0.00 0.00 0.00 65 1009.4
20260504100539 50 145 0.0 1.0 0.00 0.00 0.00 65 1009.8
20260504081535 52 188 0.0 1.0 0.00 0.00 0.00 58 1010.4
20260504081010 52 200 0.0 3.0 0.00 0.00 0.00 58 1010.4
20260504080603 52 208 0.0 1.0 0.00 0.00 0.00 57 1010.5
20260504060107 53 208 1.0 5.0 0.00 0.00 0.00 55 1011.9